Regional Weather Roundup
Issued by NWS

Home | Current Version | Previous Version | Graphics & Text | Print | Product List | Glossary On
Versions: 1 2 3 4 5 6 7 8 9 10 11 12 13 14 15 16 17 18 19 20 21 22 23 24 25 26 27 28 29 30 31 32 33 34 35 36 37 38 39 40 41 42 43 44 45 46 47 48 49 50
000
ASUS45 KABQ 281710
RWRNM
NEW MEXICO REGIONAL WEATHER ROUNDUP
NATIONAL WEATHER SERVICE ALBUQUERQUE NM
1100 AM MDT FRI AUG 28 2015

NOTE: "FAIR" MEANS FEW OR NO CLOUDS BELOW 12,000 FEET AGL WITH NO
       SIGNIFICANT WEATHER OR OBSTRUCTIONS TO VISION.

      THIS PRODUCT IS RELEASED AS TWO VERSIONS.  ONE VERSION NEAR
      THE TOP OF THE HOUR CONTAINING PRELIMINARY DATA FROM ALBUQUERQUE
      AND OTHER STATIONS.  A FINAL VERSION WITH ADDITIONAL DATA IS
      ISSUED ABOUT 10 MINUTES AFTER THE HOUR.

NMZ501-503-504-510>518-281800-
NORTHWEST PLATEAU/NORTHCENTRAL MOUNTAINS

CITY           SKY/WX    TMP DP  RH WIND       PRES   REMARKS
FARMINGTON     SUNNY     74  54  49 VRB5      30.26S
LOS ALAMOS     SUNNY     73  45  37 NE12      30.37S
SANTA FE       MOSUNNY   78  48  34 NE10      30.29S
TAOS           SUNNY     73  45  35 N10       30.37S
ANGEL FIRE     FAIR      65  48  55 CALM      30.45S

$$
NMZ402-403-502-505>509-281800-
WESTCENTRAL MOUNTAINS/SOUTHWEST MOUNTAINS

CITY           SKY/WX    TMP DP  RH WIND       PRES   REMARKS
GALLUP         SUNNY     77  51  40 N9        30.33S
GRANTS         SUNNY     73  54  51 CALM      30.35S
SILVER CITY      N/A     82  48  30 SE7       30.25R

$$
NMZ407-409-411-412-281800-
SOUTHERN DESERTS

CITY           SKY/WX    TMP DP  RH WIND       PRES   REMARKS
LORDSBURG      FAIR      77  54  44 NW7       30.16S
DEMING         PTSUNNY   79  57  46 SW7       30.15S
LAS CRUCES     MOSUNNY   85  52  31 NW3       30.16S
HOLLOMAN AFB   PTSUNNY   86  53  31 VRB2      30.11S
ALAMOGORDO     SUNNY     86  52  30 CALM      30.13F
T OR C         SUNNY     85  54  34 NE9       30.18F

$$
NMZ519>523-281800-
CENTRAL VALLEYS/CENTRAL HIGHLANDS

CITY           SKY/WX    TMP DP  RH WIND       PRES   REMARKS
ALBUQUERQUE    PTSUNNY   78  53  41 NW6       30.24F
DOUBLE EAGLE   MOSUNNY   77  54  44 N6        30.28S
MORIARTY ARPT  FAIR      76  50  39 CALM      30.30S
CLINES CORNERS MOSUNNY   74  50  42 MISG      30.33R
BELEN          FAIR      80  54  40 N5        30.23S
SOCORRO        FAIR      82  54  38 N7        30.20S

$$
NMZ524>526-539-540-281800-
SOUTHCENTRAL MOUNTAINS

CITY           SKY/WX    TMP DP  RH WIND       PRES   REMARKS
RUIDOSO        SUNNY     75  50  41 MISG      30.34S

$$
NMZ527>531-281800-
NORTHEAST HIGHLANDS/NORTHEAST PLAINS

CITY           SKY/WX    TMP DP  RH WIND       PRES   REMARKS
LAS VEGAS      MOSUNNY   75  50  41 NE6       30.34S
RATON          SUNNY     79  48  33 VRB5      30.29R
CLAYTON        SUNNY     80  58  46 N13       30.22R

$$
NMZ532>537-281800-
EASTCENTRAL PLAINS

CITY           SKY/WX    TMP DP  RH WIND       PRES   REMARKS
TUCUMCARI      SUNNY     85  56  37 NE8       30.13R
CANNON AFB     SUNNY     83  58  42 NE12      30.12S
CLOVIS AIRPORT SUNNY     84  57  39 NE9       30.13S

$$
NMZ028-029-538-281800-
SOUTHEAST PLAINS

CITY           SKY/WX    TMP DP  RH WIND       PRES   REMARKS
ROSWELL        MOSUNNY   85  57  38 N7        30.09S
ARTESIA        PTSUNNY   86  57  37 NW8       30.09F
CARLSBAD       NOT AVBL


$$


USA.gov is the U.S. government's official web portal to all federal, state and local government web resources and services.